Flag for U.S.A. Weather past 2 weeks in Providence, Rhode Island, U.S.A.

Now
72 °F

Passing clouds.


Feels Like: 72 °F
Forecast: 62 / 78 °F
Wind: 6 mph from Southwest

Location: Green State Airport

Current Time: Jul 28, 2014 at 10:20:59 PM

Latest Report: Jul 28, 2014 at 9:51 PM


Visibility: 10 mi

Pressure: 29.57 "Hg

Humidity: 81%

Dew point: 66 °F

Location of ProvidenceLocation

Historic Weather in Providence — Graph

°F

Providence temperature yesterday

Maximum temperature yesterday: 76 °F (at 9:51 AM)
Minimum temperature yesterday: 67 °F (at 1:51 AM)
Average temperature yesterday: 71 °F

Past Weeks' High & Low Weather Summary

 TemperatureHumidityPressure
High87 °F (Jul 23, 12:51 PM)97% (Jul 14, 10:51 PM)30.27 "Hg (Jul 14, 10:51 PM)
Low61 °F (Jul 18, 4:51 AM)38% (Jul 25, 12:51 PM)29.48 "Hg (Jul 28, 4:51 PM)
Average73 °F75%29.95 "Hg
* Reported Jul 13 8:51 PM — Jul 28 8:51 PM, Providence, Weather by CustomWeather, © 2014

Note: Actual official high and low records may vary slightly from our data, if they occured in-between our weather recording intervals... More about our weather records

Advertising

Providence weather history for previous 24 hours

 ConditionsComfort  
Time TempWeatherWind HumidityBarometerVisibility
8:51 PM
Jul 28
75 °FPassing clouds.8 mph74%29.54 "Hg10 mi
7:51 PM76 °FScattered clouds.14 mph69%29.52 "Hg10 mi
6:51 PM78 °FScattered clouds.15 mph69%29.51 "Hg10 mi
5:51 PM80 °FScattered clouds.17 mph67%29.49 "Hg9 mi
4:51 PM82 °FScattered clouds.15 mph65%29.48 "Hg10 mi
3:51 PM84 °FPartly sunny.17 mph61%29.49 "Hg10 mi
2:51 PM78 °FPartly sunny.10 mph79%29.52 "Hg10 mi
1:51 PM77 °FPartly sunny.10 mph77%29.52 "Hg10 mi
1:03 PM80 °FPartly sunny.14 mph69%29.54 "Hg10 mi
12:51 PM80 °FBroken clouds.13 mph67%29.54 "Hg10 mi
11:51 AM80 °FBroken clouds.14 mph64%29.56 "Hg10 mi
10:51 AM79 °FPartly sunny.16 mph72%29.58 "Hg10 mi
9:51 AM76 °FPartly sunny.18 mph77%29.57 "Hg10 mi
9:04 AM74 °FBroken clouds.14 mph85%29.58 "Hg9 mi
8:51 AM74 °FPartly sunny.15 mph91%29.57 "Hg9 mi
8:04 AM73 °FLight rain. Fog.12 mph94%29.57 "Hg2 mi
7:58 AM73 °FHeavy rain. Fog.14 mph97%29.57 "Hg2 mi
7:00 AM73 °FLight rain. Fog.8 mph94%29.59 "Hg4 mi
5:51 AM72 °FFog.9 mph97%29.62 "Hg4 mi
4:51 AM72 °FFog.7 mph93%29.63 "Hg6 mi
3:51 AM72 °FFog.8 mph93%29.63 "Hg6 mi
2:51 AM71 °FFog.3 mph96%29.65 "Hg4 mi
1:51 AM71 °FFog.9 mph93%29.67 "Hg3 mi
12:51 AM70 °FFog.12 mph97%29.70 "Hg4 mi
11:51 PM
Jul 27
70 °FFog.No wind93%29.70 "Hg4 mi
10:51 PM71 °FClear.No wind93%29.71 "Hg9 mi
Weather by CustomWeather, © 2014

See weather overviewHow to use our weather pages